Time,TemperatureF,DewpointF,PressureIn,WindDirection,WindDirectionDegrees,WindSpeedMPH,WindSpeedGustMPH,Humidity,HourlyPrecipIn,Conditions,Clouds,dailyrainin,SoftwareType,DateUTC
2013-07-06 00:02:00,73.0,64.0,29.84,North,-999,-999.0,-999.0,73,-99.99,,,-99.99,,2013-07-06 05:02:00,
2013-07-06 00:22:00,73.0,64.0,29.83,North,-999,-999.0,-999.0,73,-99.99,,,-99.99,,2013-07-06 05:22:00,
2013-07-06 00:33:00,73.0,64.0,29.83,North,-999,-999.0,-999.0,73,-99.99,,,-99.99,,2013-07-06 05:33:00,
2013-07-06 00:42:00,73.0,64.0,29.83,North,-999,-999.0,-999.0,73,-99.99,,,-99.99,,2013-07-06 05:42:00,
2013-07-06 01:02:00,75.0,64.0,29.83,North,-999,-999.0,-999.0,69,-99.99,,,-99.99,,2013-07-06 06:02:00,
2013-07-06 01:22:00,73.0,64.0,29.84,North,-999,-999.0,-999.0,73,-99.99,,,-99.99,,2013-07-06 06:22:00,
2013-07-06 01:34:00,73.0,64.0,29.84,North,-999,-999.0,-999.0,73,-99.99,,,-99.99,,2013-07-06 06:34:00,
2013-07-06 01:43:00,73.0,64.0,29.84,North,-999,-999.0,-999.0,73,-99.99,,,-99.99,,2013-07-06 06:43:00,
2013-07-06 02:02:00,73.0,64.0,29.84,North,-999,-999.0,-999.0,73,-99.99,,,-99.99,,2013-07-06 07:02:00,
2013-07-06 02:12:00,73.0,64.0,29.84,North,-999,-999.0,-999.0,73,-99.99,,,-99.99,,2013-07-06 07:12:00,
2013-07-06 02:22:00,73.0,64.0,29.84,North,-999,-999.0,-999.0,73,-99.99,,,-99.99,,2013-07-06 07:22:00,
2013-07-06 02:44:00,73.0,66.0,29.84,North,-999,-999.0,-999.0,78,-99.99,,,-99.99,,2013-07-06 07:44:00,
2013-07-06 03:02:00,73.0,64.0,29.83,North,-999,-999.0,-999.0,73,-99.99,,,-99.99,,2013-07-06 08:02:00,
2013-07-06 03:21:00,73.0,66.0,29.83,North,-999,-999.0,-999.0,78,-99.99,,,-99.99,,2013-07-06 08:21:00,
2013-07-06 03:33:00,73.0,66.0,29.83,North,-999,-999.0,-999.0,78,-99.99,,,-99.99,,2013-07-06 08:33:00,
2013-07-06 03:43:00,73.0,66.0,29.83,North,-999,-999.0,-999.0,78,-99.99,,,-99.99,,2013-07-06 08:43:00,
2013-07-06 04:02:00,73.0,66.0,29.82,North,-999,-999.0,-999.0,78,-99.99,,,-99.99,,2013-07-06 09:02:00,
2013-07-06 04:22:00,73.0,64.0,29.83,North,-999,-999.0,-999.0,73,-99.99,,,-99.99,,2013-07-06 09:22:00,
2013-07-06 04:33:00,73.0,66.0,29.82,North,-999,-999.0,-999.0,78,-99.99,,,-99.99,,2013-07-06 09:33:00,
2013-07-06 04:43:00,73.0,66.0,29.82,North,-999,-999.0,-999.0,78,-99.99,,,-99.99,,2013-07-06 09:43:00,
2013-07-06 05:02:00,73.0,64.0,29.83,North,-999,-999.0,-999.0,73,-99.99,,,-99.99,,2013-07-06 10:02:00,
2013-07-06 05:22:00,73.0,64.0,29.83,North,-999,-999.0,-999.0,73,-99.99,,,-99.99,,2013-07-06 10:22:00,
2013-07-06 05:33:00,73.0,66.0,29.84,North,-999,-999.0,-999.0,78,-99.99,,,-99.99,,2013-07-06 10:33:00,
2013-07-06 05:42:00,73.0,66.0,29.84,North,-999,-999.0,-999.0,78,-99.99,,,-99.99,,2013-07-06 10:42:00,
2013-07-06 06:01:00,72.0,66.0,29.84,North,-999,-999.0,-999.0,83,-99.99,,,-99.99,,2013-07-06 11:01:00,
2013-07-06 06:22:00,72.0,66.0,29.83,North,-999,-999.0,-999.0,83,-99.99,,,-99.99,,2013-07-06 11:22:00,
2013-07-06 06:42:00,72.0,64.0,29.85,North,-999,-999.0,-999.0,78,-99.99,,,-99.99,,2013-07-06 11:42:00,
2013-07-06 07:01:00,72.0,64.0,29.84,North,-999,-999.0,-999.0,78,-99.99,,,-99.99,,2013-07-06 12:01:00,
2013-07-06 07:22:00,72.0,64.0,29.84,North,-999,-999.0,-999.0,78,-99.99,,,-99.99,,2013-07-06 12:22:00,
2013-07-06 07:33:00,73.0,64.0,29.84,North,-999,-999.0,-999.0,73,-99.99,,,-99.99,,2013-07-06 12:33:00,
2013-07-06 07:43:00,73.0,64.0,29.84,North,-999,-999.0,-999.0,73,-99.99,,,-99.99,,2013-07-06 12:43:00,
2013-07-06 07:52:00,73.0,64.0,29.85,North,-999,-999.0,-999.0,73,-99.99,,,-99.99,,2013-07-06 12:52:00,
2013-07-06 08:01:00,73.0,64.0,29.85,North,-999,-999.0,-999.0,73,-99.99,,,-99.99,,2013-07-06 13:01:00,
2013-07-06 08:22:00,73.0,66.0,29.84,North,-999,-999.0,-999.0,78,-99.99,,,-99.99,,2013-07-06 13:22:00,
2013-07-06 08:33:00,75.0,64.0,29.83,North,-999,-999.0,-999.0,69,-99.99,,,-99.99,,2013-07-06 13:33:00,
2013-07-06 08:43:00,75.0,64.0,29.83,North,-999,-999.0,-999.0,69,-99.99,,,-99.99,,2013-07-06 13:43:00,
2013-07-06 08:52:00,75.0,64.0,29.83,North,-999,-999.0,-999.0,69,-99.99,,,-99.99,,2013-07-06 13:52:00,
2013-07-06 09:02:00,75.0,64.0,29.83,North,-999,-999.0,-999.0,69,-99.99,,,-99.99,,2013-07-06 14:02:00,
2013-07-06 09:22:00,75.0,66.0,29.83,North,-999,-999.0,-999.0,73,-99.99,,,-99.99,,2013-07-06 14:22:00,
2013-07-06 09:34:00,75.0,66.0,29.82,North,-999,-999.0,-999.0,73,-99.99,,,-99.99,,2013-07-06 14:34:00,
2013-07-06 09:42:00,75.0,66.0,29.82,North,-999,-999.0,-999.0,73,-99.99,,,-99.99,,2013-07-06 14:42:00,
2013-07-06 10:02:00,75.0,64.0,29.83,North,-999,-999.0,-999.0,69,-99.99,,,-99.99,,2013-07-06 15:02:00,
2013-07-06 10:22:00,73.0,66.0,29.81,North,-999,-999.0,-999.0,78,-99.99,,,-99.99,,2013-07-06 15:22:00,
2013-07-06 10:33:00,73.0,66.0,29.80,North,-999,-999.0,-999.0,78,-99.99,,,-99.99,,2013-07-06 15:33:00,
2013-07-06 10:43:00,73.0,66.0,29.80,North,-999,-999.0,-999.0,78,-99.99,,,-99.99,,2013-07-06 15:43:00,
2013-07-06 11:15:00,75.0,66.0,29.83,North,-999,-999.0,-999.0,73,-99.99,,,-99.99,,2013-07-06 16:15:00,
2013-07-06 11:24:00,75.0,66.0,29.83,North,-999,-999.0,-999.0,73,-99.99,,,-99.99,,2013-07-06 16:24:00,
2013-07-06 12:11:00,77.0,66.0,29.83,North,-999,-999.0,-999.0,69,-99.99,,,-99.99,,2013-07-06 17:11:00,
2013-07-06 12:30:00,79.0,66.0,29.83,North,-999,-999.0,-999.0,65,-99.99,,,-99.99,,2013-07-06 17:30:00,
2013-07-06 12:50:00,81.0,66.0,29.83,North,-999,-999.0,-999.0,61,-99.99,,,-99.99,,2013-07-06 17:50:00,
2013-07-06 12:59:00,81.0,66.0,29.83,North,-999,-999.0,-999.0,61,-99.99,,,-99.99,,2013-07-06 17:59:00,
2013-07-06 13:09:00,81.0,66.0,29.83,North,-999,-999.0,-999.0,61,-99.99,,,-99.99,,2013-07-06 18:09:00,
2013-07-06 13:31:00,82.0,66.0,29.83,North,-999,-999.0,-999.0,58,-99.99,,,-99.99,,2013-07-06 18:31:00,
2013-07-06 13:51:00,84.0,68.0,29.83,North,-999,-999.0,-999.0,58,-99.99,,,-99.99,,2013-07-06 18:51:00,
2013-07-06 14:29:00,82.0,66.0,29.83,North,-999,-999.0,-999.0,58,-99.99,,,-99.99,,2013-07-06 19:29:00,
2013-07-06 15:19:00,81.0,66.0,29.83,North,-999,-999.0,-999.0,61,-99.99,,,-99.99,,2013-07-06 20:19:00,
2013-07-06 16:10:00,84.0,66.0,29.83,North,-999,-999.0,-999.0,54,-99.99,,,-99.99,,2013-07-06 21:10:00,
2013-07-06 16:52:00,82.0,66.0,29.84,North,-999,-999.0,-999.0,58,-99.99,,,-99.99,,2013-07-06 21:52:00,
2013-07-06 16:59:00,82.0,70.0,29.83,North,-999,-999.0,-999.0,65,-99.99,,,-99.99,,2013-07-06 21:59:00,
2013-07-06 17:11:00,82.0,70.0,29.83,North,-999,-999.0,-999.0,65,-99.99,,,-99.99,,2013-07-06 22:11:00,
2013-07-06 17:51:00,81.0,72.0,29.82,North,-999,-999.0,-999.0,74,-99.99,,,-99.99,,2013-07-06 22:51:00,
2013-07-06 18:09:00,81.0,72.0,29.81,North,-999,-999.0,-999.0,74,-99.99,,,-99.99,,2013-07-06 23:09:00,
2013-07-06 18:31:00,81.0,72.0,29.81,North,-999,-999.0,-999.0,74,-99.99,,,-99.99,,2013-07-06 23:31:00,
2013-07-06 18:50:00,84.0,70.0,29.81,North,-999,-999.0,-999.0,62,-99.99,,,-99.99,,2013-07-06 23:50:00,
2013-07-06 19:29:00,82.0,70.0,29.81,North,-999,-999.0,-999.0,65,-99.99,,,-99.99,,2013-07-07 00:29:00,
2013-07-06 19:51:00,82.0,70.0,29.81,North,-999,-999.0,-999.0,65,-99.99,,,-99.99,,2013-07-07 00:51:00,
2013-07-06 19:58:00,82.0,72.0,29.82,North,-999,-999.0,-999.0,69,-99.99,,,-99.99,,2013-07-07 00:58:00,
2013-07-06 20:38:00,81.0,72.0,29.82,North,-999,-999.0,-999.0,74,-99.99,,,-99.99,,2013-07-07 01:38:00,
2013-07-06 21:29:00,81.0,72.0,29.83,North,-999,-999.0,-999.0,74,-99.99,,,-99.99,,2013-07-07 02:29:00,
2013-07-06 22:09:00,77.0,70.0,29.83,North,-999,-999.0,-999.0,78,-99.99,,,-99.99,,2013-07-07 03:09:00,
2013-07-06 22:28:00,75.0,70.0,29.84,North,-999,-999.0,-999.0,83,-99.99,,,-99.99,,2013-07-07 03:28:00,
2013-07-06 22:47:00,75.0,70.0,29.84,North,-999,-999.0,-999.0,83,-99.99,,,-99.99,,2013-07-07 03:47:00,
2013-07-06 23:01:00,75.0,72.0,29.85,North,-999,-999.0,-999.0,88,-99.99,,,-99.99,,2013-07-07 04:01:00,
2013-07-06 23:21:00,73.0,72.0,29.85,North,-999,-999.0,-999.0,94,-99.99,,,-99.99,,2013-07-07 04:21:00,
2013-07-06 23:31:00,73.0,72.0,29.85,North,-999,-999.0,-999.0,94,-99.99,,,-99.99,,2013-07-07 04:31:00,
2013-07-06 23:41:00,73.0,72.0,29.85,North,-999,-999.0,-999.0,94,-99.99,,,-99.99,,2013-07-07 04:41:00,